Preview of NWS' New Version of Forecast
This preview is not operational and should not be used for support decisions.

Regional Weather Roundup (RWR)

Issued by National Weather Service (NWS)

                            
000
ASUS43 KMKX 220521
RWRWI 

WISCONSIN REGIONAL WEATHER ROUNDUP
NATIONAL WEATHER SERVICE MILWAUKEE/SULLIVAN WI
1200 AM CDT THU AUG 22 2019

NOTE: "FAIR" INDICATES FEW OR NO CLOUDS BELOW 12,000 FEET WITH NO
SIGNIFICANT WEATHER AND/OR OBSTRUCTIONS TO VISIBILITY.

WIZ001-002-006>008-014>016-023>028-220600-
NORTHWEST WISCONSIN
  
CITY           SKY/WX    TMP DP  RH WIND       PRES   REMARKS
SUPERIOR ARPT  CLOUDY    58  50  74 CALM      30.06S                  
ASHLAND        FAIR      53  50  89 NW5       30.05R                  
HAYWARD        CLOUDY    54  50  86 CALM      30.06R                  
SIREN          FAIR      54  48  82 CALM      30.07R                  
CUMBERLAND     CLOUDY    55  52  88 N3        30.07S                  
RICE LAKE      CLOUDY    56  42  58 CALM      30.07S                  
CHETEK         CLOUDY    62  56  82 N7        30.06R                  
LADYSMITH      CLOUDY    59  56  91 CALM      30.07R                  
EAU CLAIRE     CLOUDY    62  59  90 CALM      30.03S                  
MENOMONIE      MOCLDY    56  55  94 CALM      30.05R                  
NEW RICHMOND   MOCLDY    58  54  85 CALM      30.06S                  
OSCEOLA        CLOUDY    58  58 100 CALM      30.09S                  
$$
 
WIZ003>005-009-010-017-018-220600-
NORTH CENTRAL WISCONSIN
  
CITY           SKY/WX    TMP DP  RH WIND       PRES   REMARKS
MANITOWISH WTR MOCLDY    46  46 100 CALM      30.05S                  
ARBOR VITAE    FAIR      52  49  92 CALM      30.05S                  
WOODRUFF       FAIR      52  49  92 CALM      30.05S                  
RHINELANDER    FAIR      50  47  89 CALM      30.05R                  
EAGLE RIVER    FAIR      47  47 100 CALM      30.05R                  
LAND O LAKES   FAIR      45  45  98 CALM      30.07S                  
PHILLIPS       FAIR      48  48 100 CALM      30.05R FOG              
TOMAHAWK       FAIR      45  44  97 CALM      30.06R                  
MEDFORD        MOCLDY    50  49  97 CALM      30.05R                  
MERRILL        FAIR      47  47 100 CALM      30.05S                  
$$
 
WIZ029-030-035-036-043>047-220600-
CENTRAL WISCONSIN
  
CITY           SKY/WX    TMP DP  RH WIND       PRES   REMARKS
WAUSAU         FAIR      54  51  90 N3        30.03S                  
MOSINEE        FAIR      55  50  82 CALM      30.06R                  
MARSHFIELD     FAIR      55  51  86 CALM      30.04S                  
STEVENS POINT  FAIR      51  51 100 CALM      30.05S                  
WAUPACA        FAIR      55  52  87 CALM      30.04S                  
WAUTOMA        FAIR      55  52  89 CALM      30.05R                  
WISC RAPIDS    FAIR      55  52  89 CALM      30.05R                  
CAMP DOUGLAS   FOG       52  52 100 CALM      30.04S VSB 7/8          
$$
 
WIZ011>013-019>022-031-037>040-048>050-220600-
NORTHEAST WISCONSIN
  
CITY           SKY/WX    TMP DP  RH WIND       PRES   REMARKS
ANTIGO         FAIR      48  47  96 CALM      30.06R                  
SHAWANO        FAIR      57  51  79 CALM      30.04R                  
OCONTO         FAIR      52  49  90 CALM      30.02S                  
STURGEON BAY   FAIR      62  53  72 NE3       30.03R                  
GREEN BAY      MOCLDY    60  50  69 NW3       30.03R                  
MANITOWOC      FAIR      62  51  67 N8        30.02R                  
APPLETON       FAIR      59  43  55 N3        30.02S                  
CLINTONVILLE   FAIR      55  48  78 CALM      30.03S                  
OSHKOSH        MOCLDY    63  49  60 N6        30.02R                  
$$
 
WIZ032>034-041-042-053>061-220600-
SOUTHWEST WISCONSIN
  
CITY           SKY/WX    TMP DP  RH WIND       PRES   REMARKS
LA CROSSE      FAIR      62  55  77 CALM      30.04R                  
SPARTA         FAIR      50  49  97 CALM      30.06R                  
VIROQUA        FAIR      60  56  85 CALM      30.06S                  
BOSCOBEL       FAIR      59  57  93 CALM      30.04S                  
PRAIRIE DU CHI FAIR      60  57  89 CALM      30.04S                  
PLATTEVILLE    FAIR      63  60  93 CALM      30.06R                  
$$

WIZ056-057-062-063-064-067-068-220600-
SOUTH CENTRAL WISCONSIN
  
CITY           SKY/WX    TMP DP  RH WIND       PRES   REMARKS
REEDSBURG      FAIR      61  56  85 W3        30.04S                  
BARABOO/DELLS  FAIR      57  53  86 CALM      30.04S                  
LONE ROCK      FAIR      60  57  89 CALM      30.03S                  
MINERAL POINT    N/A     63  59  88 MISG      30.05R                  
MADISON        FAIR      63  55  75 N6        30.02R                  
MIDDLETON      FAIR      63  55  76 CALM      30.04R                  
WATERTOWN      FAIR      64  55  72 N5        30.02R                  
MONROE         FAIR      65  56  72 N6        30.04R                  
JANESVILLE     FAIR      66  59  77 CALM      30.02R                  
$$
 
WIZ051-052-058>065-066-070>072-220600-
SOUTHEAST WISCONSIN
  
CITY           SKY/WX    TMP DP  RH WIND       PRES   REMARKS
MILWAUKEE      MOCLDY    71  52  50 N7        30.00R                  
WAUKESHA       FAIR      63  52  67 NW3       30.03R                  
MILWAUKEE/TIMM FAIR      64  50  59 N7        30.02S                  
RACINE         FAIR      69  59  70 NW6       30.01S                  
KENOSHA        FAIR      67  62  84 W5        30.00S                  
FOND DU LAC    FAIR      68  49  50 NE12      30.03R                  
SHEBOYGAN      FAIR      64  51  62 N7        30.01R                  
WEST BEND      FAIR      63  52  67 N5        30.02R                  
JUNEAU         FAIR      61  53  75 CALM      30.04S                  
$$

LSZ147-162-220600-
LAKE SUPERIOR
  
STATION/POSITION TIME  TEMP    WIND        PRES    WAVE
                       AIR SEA DIR/SP/G            HT/PER
                 (UTC) (F)     (DEG/KT/KT) (MB)    (FT/S)
W MID LAKE BUOY  0450   63 63  360/ 12/ 14 1016.8R   1
DEVILS ISLAND    0500   63      30/  9/ 10 1017.7R
SAXON HARBOR     0440   67      30/ 10/ 12 1016.6S
$$
 
LMZ867-665-643>646-220600-
LAKE MICHIGAN
  
STATION/POSITION TIME  TEMP    WIND        PRES    WAVE
                       AIR SEA DIR/SP/G            HT/PER
                 (UTC) (F)     (DEG/KT/KT) (MB)    (FT/S)
S GREEN BAY BUOY 0500   73 70   30/ 12/ 14 1016.6
N MID LAKE BUOY  0500   65 70   10/ 12/ 16 1016.5
NORTHPORT PIER   0440   65     340/  4/  5 1016.3R
KEWAUNEE LAKESHO 0448   64     360/  2/  6 1015.8R
SHEBOYGAN LAKESH 0500   67     350/ 15/ 17 1016.2R
PORT WASHINGTON  0430   68     320/  5/  7 1016.9R
ATWATER BUOY     0430   71 71  330/ 10/ 12 1016.0R   1/ 3
S MID LAKE BUOY  0500   72 74   20/  4/  4 1015.6
KENOSHA   LAKESH 0500   71     300/  7/  8 1015.6
$$

TC  - TEMPERATURE IN CELSIUS
VSB - VISIBILITY IN STATUTE MILES
WCI - WIND CHILL INDEX
HX  - HEAT INDEX